Creston, IA

6:08 PM CDT on August 31, 2016 (GMT -0500)
Creston Municipal

Weather History for KCSQ - March, 2014

Change the Weather History Date:

Saturday, March 22, 2014

  Actual Average Record
Temperature  
Mean Temperature 26 °F -  
Max Temperature 33 °F 51 °F 82 °F (1988)
Min Temperature 19 °F 29 °F 10 °F (1964)
Degree Days  
Heating Degree Days 39    
Moisture  
Dew Point 12 °F    
Average Humidity 57    
Maximum Humidity 86    
Minimum Humidity 30    
Precipitation  
Precipitation 0.00 in - - ()
Sea Level Pressure  
Sea Level Pressure 30.32 in    
Wind  
Wind Speed 16 mph (North)    
Max Wind Speed 21 mph    
Max Gust Speed 26 mph    
Visibility 10 miles    
Events      
Averages and records for this station are not official NWS values.
T = Trace of Precipitation, MM = Missing Value Source: NWS Daily Summary

Daily Weather History Graph

Daily Weather History Graph

Search for Another Location

Airport or City:

Trip Planner

Search our weather history database for the weather conditions in past years. The results will help you decide how hot, cold, wet, or windy it might be!

Date:

Astronomy

Mar. 22, 2014 Rise Set
Actual Time 7:17 AM CDT 7:31 PM CDT
Civil Twilight 6:49 AM CDT 7:59 PM CDT
Nautical Twilight 6:17 AM CDT 8:31 PM CDT
Astronomical Twilight 5:44 AM CDT 9:04 PM CDT
Moon 12:54 AM CDT (3/22) 10:59 AM CDT (3/22)
Length of Visible Light 13h 09m
Length of Day
12h 14m
Waning Gibbous, 65% of the Moon is Illuminated
Mar 22
Waning Gibbous
Mar 23
Last Quarter
Mar 30
New
Apr 7
First Quarter
Apr 15
Full

Hourly Weather History & Observations

Time (CDT) Temp. Windchill Dew Point Humidity Pressure Visibility Wind Dir Wind Speed Gust Speed Precip Events Conditions
12:15 AM 30.2 °F 19.3 °F 21.2 °F 69% 30.17 in 10.0 mi NNW 15.0 mph - N/A   Clear
12:35 AM 30.2 °F 18.1 °F 23.0 °F 75% 30.17 in 10.0 mi North 18.4 mph 26.5 mph N/A   Clear
12:55 AM 30.2 °F 18.5 °F 23.0 °F 75% 30.18 in 10.0 mi NNW 17.3 mph - N/A   Clear
1:15 AM 28.4 °F 16.6 °F 23.0 °F 80% 30.18 in 10.0 mi NNW 16.1 mph 25.3 mph N/A   Clear
1:35 AM 28.4 °F 18.0 °F 23.0 °F 80% 30.19 in 10.0 mi NNW 12.7 mph - N/A   Clear
1:55 AM 26.6 °F 16.8 °F 23.0 °F 86% 30.20 in 10.0 mi NNW 10.4 mph - N/A   Clear
2:15 AM 26.6 °F 16.8 °F 23.0 °F 86% 30.20 in 10.0 mi NNW 10.4 mph - N/A   Clear
2:35 AM 26.6 °F 15.7 °F 21.2 °F 80% 30.21 in 10.0 mi NNW 12.7 mph - N/A   Clear
2:55 AM 26.6 °F 15.2 °F 21.2 °F 80% 30.21 in 10.0 mi NNW 13.8 mph - N/A   Clear
3:15 AM 24.8 °F 14.6 °F 21.2 °F 86% 30.22 in 10.0 mi NNW 10.4 mph - N/A   Clear
3:35 AM 24.8 °F 12.4 °F 19.4 °F 80% 30.22 in 10.0 mi NNW 15.0 mph - N/A   Clear
3:55 AM 24.8 °F 13.4 °F 19.4 °F 80% 30.23 in 10.0 mi NNW 12.7 mph - N/A   Clear
4:15 AM 24.8 °F 14.0 °F 19.4 °F 80% 30.24 in 10.0 mi NNW 11.5 mph - N/A   Clear
4:35 AM 23.0 °F 9.6 °F 17.6 °F 80% 30.24 in 10.0 mi NNW 16.1 mph - N/A   Clear
4:55 AM 23.0 °F 10.1 °F 15.8 °F 74% 30.25 in 10.0 mi NNW 15.0 mph - N/A   Clear
5:15 AM 23.0 °F 10.1 °F 15.8 °F 74% 30.25 in 10.0 mi NNW 15.0 mph 23.0 mph N/A   Clear
5:35 AM 23.0 °F 10.1 °F 15.8 °F 74% 30.25 in 10.0 mi NNW 15.0 mph - N/A   Clear
5:55 AM 23.0 °F 10.1 °F 15.8 °F 74% 30.26 in 10.0 mi NNW 15.0 mph 21.9 mph N/A   Clear
6:15 AM 21.2 °F 7.8 °F 15.8 °F 80% 30.27 in 10.0 mi NNW 15.0 mph - N/A   Clear
6:35 AM 21.2 °F 7.3 °F 14.0 °F 74% 30.27 in 10.0 mi NNW 16.1 mph - N/A   Clear
6:55 AM 21.2 °F 8.9 °F 12.2 °F 68% 30.28 in 10.0 mi North 12.7 mph 23.0 mph N/A   Clear
7:15 AM 19.4 °F 8.6 °F 12.2 °F 74% 30.28 in 10.0 mi North 9.2 mph 16.1 mph N/A   Clear
7:35 AM 19.4 °F 5.5 °F 12.2 °F 74% 30.29 in 10.0 mi North 15.0 mph - N/A   Clear
7:55 AM 19.4 °F 3.6 °F 10.4 °F 68% 30.30 in 10.0 mi North 19.6 mph - N/A   Clear
8:15 AM 21.2 °F 6.8 °F 10.4 °F 63% 30.30 in 10.0 mi North 17.3 mph 26.5 mph N/A   Clear
8:35 AM 21.2 °F 6.4 °F 12.2 °F 68% 30.31 in 10.0 mi North 18.4 mph - N/A   Clear
8:55 AM 21.2 °F 6.0 °F 10.4 °F 63% 30.32 in 10.0 mi North 19.6 mph 26.5 mph N/A   Clear
9:15 AM 21.2 °F 6.8 °F 10.4 °F 63% 30.32 in 10.0 mi North 17.3 mph 24.2 mph N/A   Clear
9:35 AM 23.0 °F 8.0 °F 8.6 °F 54% 30.33 in - North 20.7 mph - N/A   Clear
9:55 AM 23.0 °F 9.6 °F 10.4 °F 59% 30.33 in 10.0 mi North 16.1 mph 21.9 mph N/A   Clear
10:15 AM 23.0 °F 9.2 °F 10.4 °F 59% 30.33 in 10.0 mi North 17.3 mph - N/A   Clear
10:35 AM 23.0 °F 10.1 °F 8.6 °F 54% 30.34 in 10.0 mi North 15.0 mph 21.9 mph N/A   Scattered Clouds
10:55 AM 24.8 °F 11.1 °F 8.6 °F 50% 30.35 in 10.0 mi North 18.4 mph - N/A   Partly Cloudy
11:15 AM 24.8 °F 11.1 °F 6.8 °F 46% 30.36 in 10.0 mi North 18.4 mph - N/A   Clear
11:35 AM 26.6 °F 13.8 °F 6.8 °F 43% 30.37 in 10.0 mi NNW 17.3 mph - N/A   Clear
11:55 AM 28.4 °F 15.8 °F 5.0 °F 37% 30.37 in 10.0 mi North 18.4 mph - N/A   Clear
12:15 PM 28.4 °F 15.8 °F 5.0 °F 37% 30.37 in 10.0 mi NNE 18.4 mph - N/A   Clear
12:55 PM 30.2 °F 18.5 °F 5.0 °F 34% 30.36 in 10.0 mi North 17.3 mph - N/A   Clear
1:15 PM 32.0 °F 21.2 °F 3.2 °F 30% 30.35 in 10.0 mi North 16.1 mph 23.0 mph N/A   Clear
1:35 PM 32.0 °F 20.8 °F 3.2 °F 30% 30.36 in 10.0 mi North 17.3 mph 23.0 mph N/A   Partly Cloudy
1:55 PM 32.0 °F 20.1 °F 5.0 °F 32% 30.35 in 10.0 mi North 19.6 mph - N/A   Partly Cloudy
2:15 PM 32.0 °F 20.8 °F 5.0 °F 32% 30.35 in 10.0 mi North 17.3 mph 24.2 mph N/A   Clear
2:35 PM 32.0 °F 20.5 °F 5.0 °F 32% 30.35 in 10.0 mi North 18.4 mph - N/A   Clear
2:55 PM 32.0 °F 20.5 °F 5.0 °F 32% 30.35 in 10.0 mi North 18.4 mph 24.2 mph N/A   Partly Cloudy
3:15 PM 32.0 °F 20.5 °F 6.8 °F 35% 30.34 in 10.0 mi North 18.4 mph 25.3 mph N/A   Mostly Cloudy
3:35 PM 33.8 °F 23.2 °F 6.8 °F 32% 30.35 in 10.0 mi North 17.3 mph 24.2 mph N/A   Overcast
3:55 PM 32.0 °F 20.1 °F 6.8 °F 35% 30.34 in 10.0 mi North 19.6 mph 26.5 mph N/A   Mostly Cloudy
4:15 PM 32.0 °F 20.8 °F 6.8 °F 35% 30.34 in 10.0 mi North 17.3 mph 26.5 mph N/A   Mostly Cloudy
4:35 PM 32.0 °F 20.5 °F 6.8 °F 35% 30.34 in 10.0 mi North 18.4 mph 24.2 mph N/A   Mostly Cloudy
4:55 PM 32.0 °F 20.5 °F 6.8 °F 35% 30.34 in 10.0 mi North 18.4 mph 24.2 mph N/A   Scattered Clouds
5:15 PM 30.2 °F 18.5 °F 8.6 °F 40% 30.34 in 10.0 mi North 17.3 mph 23.0 mph N/A   Partly Cloudy
5:35 PM 30.2 °F 18.5 °F 8.6 °F 40% 30.35 in 10.0 mi North 17.3 mph 24.2 mph N/A   Clear
5:55 PM 30.2 °F 18.5 °F 8.6 °F 40% 30.36 in 10.0 mi North 17.3 mph 25.3 mph N/A   Clear
6:15 PM 28.4 °F 16.2 °F 8.6 °F 43% 30.37 in 10.0 mi North 17.3 mph - N/A   Clear
6:35 PM 28.4 °F 16.6 °F 8.6 °F 43% 30.37 in - North 16.1 mph 21.9 mph N/A   Clear
6:55 PM 28.4 °F 17.5 °F 10.4 °F 47% 30.38 in 10.0 mi North 13.8 mph 20.7 mph N/A   Scattered Clouds
7:15 PM 26.6 °F 14.7 °F 8.6 °F 47% 30.38 in 10.0 mi North 15.0 mph 21.9 mph N/A   Overcast
7:35 PM 26.6 °F 14.3 °F 8.6 °F 47% 30.38 in 10.0 mi North 16.1 mph 25.3 mph N/A   Overcast
7:55 PM 26.6 °F 14.7 °F 10.4 °F 51% 30.39 in 10.0 mi North 15.0 mph 20.7 mph N/A   Overcast
8:15 PM 26.6 °F 14.3 °F 8.6 °F 47% 30.39 in 10.0 mi NNE 16.1 mph - N/A   Overcast
8:35 PM 26.6 °F 14.7 °F 10.4 °F 51% 30.40 in 10.0 mi North 15.0 mph 23.0 mph N/A   Overcast
8:55 PM 24.8 °F 11.9 °F 8.6 °F 50% 30.41 in 10.0 mi North 16.1 mph - N/A   Overcast
9:15 PM 24.8 °F 11.5 °F 10.4 °F 54% 30.41 in 10.0 mi North 17.3 mph - N/A   Overcast
9:35 PM 24.8 °F 11.9 °F 10.4 °F 54% 30.42 in 10.0 mi North 16.1 mph - N/A   Overcast
9:55 PM 24.8 °F 11.9 °F 10.4 °F 54% 30.43 in 10.0 mi North 16.1 mph - N/A   Overcast
10:15 PM 24.8 °F 12.9 °F 10.4 °F 54% 30.44 in 10.0 mi North 13.8 mph 21.9 mph N/A   Overcast
10:35 PM 24.8 °F 12.9 °F 10.4 °F 54% 30.44 in 10.0 mi North 13.8 mph - N/A   Overcast
10:55 PM 24.8 °F 11.9 °F 10.4 °F 54% 30.45 in 10.0 mi North 16.1 mph - N/A   Overcast
11:15 PM 24.8 °F 14.6 °F 10.4 °F 54% 30.46 in 10.0 mi North 10.4 mph 19.6 mph N/A   Overcast
11:35 PM 23.0 °F 10.1 °F 10.4 °F 59% 30.46 in 10.0 mi North 15.0 mph - N/A   Overcast
11:55 PM 23.0 °F 10.6 °F 10.4 °F 59% 30.46 in 10.0 mi North 13.8 mph 19.6 mph N/A   Overcast